Location: Newark
(42.7133°N, 87.7910°W)
Time: 23:35:55
(UTC+00:00)

A-11 Canister half - Pass Details

Date: 25 September 2019
Orbit: 1527 x 1682 km, 47.3° (Epoch: 22 October)

Event Time Altitude Azimuth Distance (km) Brightness Sun altitude
Exits shadow 10:33:30 16° 268° (W) 3,272 10.1 -13.2°
Maximum altitude 10:41:28 71° 350° (N) 1,651 9.2 -11.8°
Drops below altitude 10° 10:51:11 10° 75° (ENE) 3,834 12.7 -10.0°
Sets 10:54:23 0° 77° (ENE) 4,841 13.9 -9.5°
